This is the latest recevied weather packets stored in our database for station/object KE8WAY. If no packets are shown the sender has not sent any weather packets the latest 10 day(s).
| Time | Temp. | Humidity | Pressure | Rain* | Wind** | Luminosity | Snow |
|---|---|---|---|---|---|---|---|
| 1777996343 | 16.11° C | 70% | 1006.5 hPa | 0 mm | - | 130 W/m² | - |
| 1777996040 | 16.67° C | 69% | 1006.8 hPa | 0 mm | - | 135 W/m² | - |
| 1777995736 | 16.11° C | 68% | 1006.5 hPa | 0 mm | - | 187 W/m² | - |
| 1777995432 | 16.11° C | 69% | 1006.5 hPa | 0 mm | - | 163 W/m² | - |
| 1777995130 | 16.67° C | 69% | 1006.3 hPa | 0 mm | - | 125 W/m² | - |
| 1777994827 | 16.67° C | 70% | 1006.3 hPa | 0 mm | - | 170 W/m² | - |
| 1777994523 | 16.67° C | 72% | 1006.2 hPa | 0 mm | - | 223 W/m² | - |
| 1777994218 | 16.67° C | 72% | 1006.3 hPa | 0 mm | - | 79 W/m² | - |
| 1777993916 | 16.67° C | 72% | 1006.3 hPa | 0 mm | - | 75 W/m² | - |
| 1777993611 | 16.67° C | 71% | 1006.2 hPa | 0 mm | - | 100 W/m² | - |
| 1777993309 | 16.67° C | 70% | 1006.1 hPa | 0 mm | - | 97 W/m² | - |
| 1777993004 | 17.22° C | 70% | 1005.6 hPa | 0 mm | - | 185 W/m² | - |
| 1777992702 | 16.67° C | 70% | 1005.7 hPa | 0 mm | - | 264 W/m² | - |
| 1777992399 | 17.22° C | 70% | 1005.7 hPa | 0 mm | - | 164 W/m² | - |
| 1777992097 | 17.22° C | 70% | 1005.7 hPa | 0 mm | - | 230 W/m² | - |
| 1777991794 | 16.67° C | 71% | 1005.5 hPa | 0 mm | - | 216 W/m² | - |
| 1777991491 | 16.67° C | 70% | 1005.2 hPa | 0 mm | - | 235 W/m² | - |
| 1777991188 | 16.67° C | 71% | 1004.9 hPa | 0 mm | - | 237 W/m² | - |
| 1777990886 | 16.67° C | 69% | 1005 hPa | 0 mm | - | 199 W/m² | - |
| 1777990583 | 17.22° C | 69% | 1004.7 hPa | 0 mm | - | 327 W/m² | - |
| 1777989977 | 16.67° C | 71% | 1004.2 hPa | 0 mm | - | 420 W/m² | - |
| 1777989674 | 16.67° C | 71% | 1004.6 hPa | 0 mm | - | 472 W/m² | - |
| 1777989369 | 16.67° C | 71% | 1004.5 hPa | 0 mm | - | 426 W/m² | - |
| 1777989066 | 16.67° C | 71% | 1004.2 hPa | 0 mm | - | 404 W/m² | - |
| 1777988762 | 16.67° C | 72% | 1004.1 hPa | 0 mm | - | 381 W/m² | - |
* Rain latest hour (hover to see other rain measurements)
** Current wind speed in m/s (hover to see current wind gust speed)